TimeCEST,TemperatureF,Dew PointF,Humidity,Sea Level PressureIn,VisibilityMPH,Wind Direction,Wind SpeedMPH,Gust SpeedMPH,PrecipitationIn,Events,Conditions,WindDirDegrees,DateUTC
12:00 AM,77,61,48,29.89,28,NE,2.2,,,,Scattered Clouds,40,2013-08-02 22:00:00
12:20 AM,75.2,60.8,61,29.89,-9999.0,NNE,3.5,-,N/A,,Clear,30,2013-08-02 22:20:00
12:50 AM,73.4,60.8,65,29.89,-9999.0,Variable,1.2,-,N/A,,Clear,0,2013-08-02 22:50:00
1:20 AM,73.4,60.8,65,29.92,-9999.0,Variable,2.3,-,N/A,,Clear,0,2013-08-02 23:20:00
1:50 AM,71.6,60.8,69,29.92,-9999.0,ESE,3.5,-,N/A,,Clear,120,2013-08-02 23:50:00
2:00 AM,72,61,61,29.90,28,ESE,4.5,,,,Scattered Clouds,120,2013-08-03 00:00:00
2:20 AM,71.6,60.8,69,29.89,-9999.0,ESE,2.3,-,N/A,,Clear,110,2013-08-03 00:20:00
2:50 AM,69.8,60.8,73,29.89,-9999.0,Variable,2.3,-,N/A,,Clear,0,2013-08-03 00:50:00
3:00 AM,70,62,67,29.89,25,NNE,2.2,,,,Scattered Clouds,20,2013-08-03 01:00:00
3:20 AM,69.8,62.6,78,29.89,-9999.0,North,1.2,-,N/A,,Clear,360,2013-08-03 01:20:00
3:50 AM,71.6,62.6,73,29.89,-9999.0,South,3.5,-,N/A,,Clear,180,2013-08-03 01:50:00
4:00 AM,71,62,65,29.90,25,South,2.2,,,,Mostly Cloudy,180,2013-08-03 02:00:00
4:20 AM,75.2,62.6,65,29.95,-9999.0,SSW,8.1,-,N/A,,Clear,210,2013-08-03 02:20:00
4:50 AM,73.4,60.8,65,29.95,-9999.0,South,4.6,-,N/A,,Clear,170,2013-08-03 02:50:00
5:20 AM,75.2,60.8,61,29.95,-9999.0,South,8.1,23.0,N/A,,Clear,190,2013-08-03 03:20:00
5:50 AM,75.2,59.0,57,29.98,-9999.0,SSW,8.1,-,N/A,,Clear,210,2013-08-03 03:50:00
6:00 AM,74,59,51,29.98,22,SSW,8.9,,,,Scattered Clouds,210,2013-08-03 04:00:00
6:20 AM,75.2,62.6,65,30.04,-9999.0,West,8.1,-,N/A,,Clear,270,2013-08-03 04:20:00
6:50 AM,77.0,62.6,61,29.98,-9999.0,North,6.9,-,N/A,,Clear,360,2013-08-03 04:50:00
7:00 AM,76,62,52,29.96,22,North,6.7,,,,Mostly Cloudy,0,2013-08-03 05:00:00
7:20 AM,77.0,60.8,57,30.04,-9999.0,West,16.1,-,N/A,,Clear,270,2013-08-03 05:20:00
7:50 AM,77.0,59.0,54,30.04,-9999.0,West,5.8,-,N/A,,Clear,280,2013-08-03 05:50:00
8:20 AM,77.0,59.0,54,30.04,-9999.0,WNW,3.5,-,N/A,,Clear,290,2013-08-03 06:20:00
8:50 AM,77.0,60.8,57,30.04,6.2,SSE,5.8,-,N/A,Rain,Light Rain Showers,150,2013-08-03 06:50:00
9:00 AM,76,61,49,30.03,25,SSE,4.5,,,Rain,Light Rain Showers,150,2013-08-03 07:00:00
9:20 AM,78.8,60.8,54,30.04,-9999.0,South,3.5,-,N/A,,Clear,180,2013-08-03 07:20:00
9:50 AM,78.8,60.8,54,30.06,-9999.0,South,6.9,-,N/A,,Clear,180,2013-08-03 07:50:00
10:00 AM,80,60,41,30.05,28,South,6.7,,,Rain,Light Rain Showers,180,2013-08-03 08:00:00
10:20 AM,80.6,59.0,48,30.06,-9999.0,Variable,5.8,-,N/A,,Clear,0,2013-08-03 08:20:00
10:50 AM,82.4,59.0,45,30.06,-9999.0,SW,15.0,-,N/A,,Clear,220,2013-08-03 08:50:00
11:20 AM,82.4,59.0,45,30.09,-9999.0,SW,13.8,-,N/A,,Clear,220,2013-08-03 09:20:00
11:50 AM,82.4,59.0,45,30.06,-9999.0,SW,13.8,-,N/A,,Clear,220,2013-08-03 09:50:00
12:00 PM,82,58,34,30.07,37,SW,13.4,,,,Partly Cloudy,220,2013-08-03 10:00:00
12:20 PM,82.4,59.0,45,30.06,-9999.0,WSW,12.7,-,N/A,,Clear,250,2013-08-03 10:20:00
12:50 PM,84.2,59.0,42,30.06,-9999.0,West,11.5,-,N/A,,Clear,260,2013-08-03 10:50:00
1:00 PM,84,58,31,30.06,37,West,11.2,,,Rain,Light Rain Showers,260,2013-08-03 11:00:00
1:20 PM,84.2,60.8,45,30.09,-9999.0,SW,12.7,-,N/A,,Clear,230,2013-08-03 11:20:00
1:50 PM,84.2,57.2,40,30.09,-9999.0,SW,13.8,-,N/A,,Clear,230,2013-08-03 11:50:00
2:00 PM,85,57,29,30.07,37,SW,13.4,,,,Scattered Clouds,230,2013-08-03 12:00:00
2:20 PM,84.2,59.0,42,30.09,-9999.0,SSW,11.5,-,N/A,,Clear,210,2013-08-03 12:20:00
2:50 PM,86.0,59.0,40,30.09,-9999.0,SW,10.4,-,N/A,,Clear,220,2013-08-03 12:50:00
3:00 PM,86,59,29,30.08,37,SW,11.2,,,,Scattered Clouds,220,2013-08-03 13:00:00
3:20 PM,86.0,57.2,37,30.09,-9999.0,West,15.0,-,N/A,,Clear,270,2013-08-03 13:20:00
3:50 PM,84.2,55.4,37,30.09,-9999.0,WSW,12.7,-,N/A,,Clear,250,2013-08-03 13:50:00
4:00 PM,85,56,27,30.08,37,WSW,13.4,,,,Scattered Clouds,250,2013-08-03 14:00:00
4:20 PM,86.0,57.2,37,30.09,-9999.0,West,5.8,-,N/A,,Clear,270,2013-08-03 14:20:00
4:50 PM,84.2,57.2,40,30.09,-9999.0,West,11.5,-,N/A,,Clear,280,2013-08-03 14:50:00
5:20 PM,86.0,55.4,35,30.09,-9999.0,West,12.7,-,N/A,,Clear,270,2013-08-03 15:20:00
5:50 PM,84.2,55.4,37,30.09,-9999.0,West,9.2,-,N/A,,Clear,260,2013-08-03 15:50:00
6:00 PM,85,56,26,30.08,37,West,8.9,,,,Scattered Clouds,260,2013-08-03 16:00:00
6:20 PM,82.4,57.2,42,30.09,-9999.0,West,9.2,-,N/A,,Clear,280,2013-08-03 16:20:00
6:50 PM,82.4,59.0,45,30.09,-9999.0,WNW,6.9,-,N/A,,Clear,300,2013-08-03 16:50:00
7:00 PM,83,58,32,30.08,40,WNW,6.7,,,,Scattered Clouds,300,2013-08-03 17:00:00
7:20 PM,82.4,50.0,32,30.09,-9999.0,NNW,12.7,-,N/A,,Clear,330,2013-08-03 17:20:00
7:50 PM,80.6,51.8,37,30.09,-9999.0,NW,9.2,-,N/A,,Clear,320,2013-08-03 17:50:00
8:00 PM,80,51,26,30.09,40,NW,8.9,,,,Scattered Clouds,320,2013-08-03 18:00:00
8:20 PM,80.6,51.8,37,30.09,-9999.0,NW,5.8,-,N/A,,Clear,320,2013-08-03 18:20:00
8:50 PM,80.6,51.8,37,30.12,-9999.0,West,8.1,-,N/A,,Clear,280,2013-08-03 18:50:00
9:00 PM,80,50,25,30.11,40,West,6.7,,,,Partly Cloudy,280,2013-08-03 19:00:00
9:20 PM,78.8,51.8,39,30.12,-9999.0,WNW,6.9,-,N/A,,Clear,290,2013-08-03 19:20:00
9:50 PM,78.8,51.8,39,30.12,-9999.0,West,6.9,-,N/A,,Clear,280,2013-08-03 19:50:00
10:00 PM,79,52,28,30.13,40,West,6.7,,,,Scattered Clouds,280,2013-08-03 20:00:00
10:20 PM,77.0,53.6,44,30.12,-9999.0,West,5.8,-,N/A,,Clear,280,2013-08-03 20:20:00
10:50 PM,77.0,53.6,44,30.12,-9999.0,West,2.3,-,N/A,,Clear,280,2013-08-03 20:50:00
11:20 PM,73.4,53.6,50,30.15,-9999.0,Variable,1.2,-,N/A,,Clear,0,2013-08-03 21:20:00
11:50 PM,73.4,55.4,53,30.15,-9999.0,Calm,Calm,-,N/A,,Clear,0,2013-08-03 21:50:00